Tampa, FL

6:52 PM EDT on April 29, 2017 (GMT -0400)
Tampa International

Weather History for KTPA - July, 2013

Change the Weather History Date:

Wednesday, July 31, 2013

  Actual Average Record
Temperature  
Mean Temperature 83 °F 83 °F  
Max Temperature 91 °F 90 °F 96 °F (1958)
Min Temperature 75 °F 76 °F 70 °F (1947)
Degree Days  
Heating Degree Days 0 0  
Month to date heating degree days 0 0  
Since 1 June heating degree days 0 0  
Since 1 July heating degree days 0 0  
Cooling Degree Days 18 18  
Month to date cooling degree days 549 558  
Year to date cooling degree days 2047 1951  
Since 1 June cooling degree days 1072 1074  
Growing Degree Days 33 (Base 50)    
Moisture  
Dew Point 73 °F    
Average Humidity 73    
Maximum Humidity 94    
Minimum Humidity 52    
Precipitation  
Precipitation 0.28 in 0.22 in 3.31 in (2007)
Month to date precipitation 10.19 7.07  
Year to date precipitation 30.61 25.95  
Sea Level Pressure  
Sea Level Pressure 30.09 in    
Wind  
Wind Speed 4 mph (NE)    
Max Wind Speed 18 mph    
Max Gust Speed 26 mph    
Visibility 10 miles    
Events Rain , Thunderstorm    
T = Trace of Precipitation, MM = Missing Value Source: NWS Daily Summary

Daily Weather History Graph

Daily Weather History Graph

Search for Another Location

Airport or City:

Trip Planner

Search our weather history database for the weather conditions in past years. The results will help you decide how hot, cold, wet, or windy it might be!

Date:

Astronomy

Jul. 31, 2013 Rise Set
Actual Time 6:52 AM EDT 8:20 PM EDT
Civil Twilight 6:26 AM EDT 8:45 PM EDT
Nautical Twilight 5:56 AM EDT 9:15 PM EDT
Astronomical Twilight 5:25 AM EDT 9:47 PM EDT
Moon 1:46 AM EDT (7/31) 3:33 PM EDT (7/31)
Length of Visible Light 14h 18m
Length of Day
13h 27m
Waning Crescent, 32% of the Moon is Illuminated
Jul 31
Waning Crescent
Aug 6
New
Aug 14
First Quarter
Aug 20
Full
Aug 28
Last Quarter

Hourly Weather History & Observations

Time (EDT) Temp. Heat Index Dew Point Humidity Pressure Visibility Wind Dir Wind Speed Gust Speed Precip Events Conditions
12:53 AM 78.1 °F - 73.9 °F 87% 30.14 in 10.0 mi NNE 4.6 mph - N/A   Scattered Clouds
1:53 AM 77.0 °F - 73.9 °F 90% 30.12 in 10.0 mi NE 3.5 mph - N/A   Scattered Clouds
2:53 AM 77.0 °F - 73.9 °F 90% 30.09 in 10.0 mi Calm Calm - N/A   Mostly Cloudy
3:53 AM 77.0 °F - 73.0 °F 88% 30.09 in 10.0 mi North 3.5 mph - N/A   Mostly Cloudy
4:53 AM 77.0 °F - 73.0 °F 88% 30.09 in 10.0 mi Calm Calm - N/A   Scattered Clouds
5:53 AM 75.9 °F - 73.0 °F 91% 30.10 in 10.0 mi Calm Calm - N/A   Scattered Clouds
6:53 AM 75.9 °F - 72.0 °F 87% 30.11 in 10.0 mi ENE 4.6 mph - N/A   Scattered Clouds
7:53 AM 79.0 °F - 73.9 °F 84% 30.12 in 10.0 mi Calm Calm - N/A   Scattered Clouds
8:53 AM 82.0 °F 89.4 °F 75.9 °F 82% 30.13 in 10.0 mi East 4.6 mph - N/A   Scattered Clouds
9:53 AM 84.9 °F 94.1 °F 75.9 °F 74% 30.14 in 10.0 mi ESE 4.6 mph - N/A   Scattered Clouds
10:53 AM 87.1 °F 95.4 °F 73.9 °F 65% 30.14 in 10.0 mi Variable 3.5 mph - N/A   Mostly Cloudy
11:53 AM 88.0 °F 94.7 °F 72.0 °F 59% 30.13 in 10.0 mi East 3.5 mph - N/A   Mostly Cloudy
12:53 PM 89.1 °F 95.0 °F 71.1 °F 55% 30.11 in 10.0 mi Calm Calm - N/A   Mostly Cloudy
1:53 PM 90.0 °F 97.9 °F 73.0 °F 57% 30.09 in 10.0 mi WSW 5.8 mph - N/A   Mostly Cloudy
2:53 PM 90.0 °F 99.0 °F 73.9 °F 59% 30.06 in 10.0 mi WSW 9.2 mph - N/A   Mostly Cloudy
3:53 PM 91.0 °F 99.3 °F 73.0 °F 55% 30.04 in 10.0 mi WSW 9.2 mph - N/A   Scattered Clouds
4:53 PM 91.0 °F 98.2 °F 72.0 °F 53% 30.03 in 10.0 mi WSW 6.9 mph - N/A   Scattered Clouds
5:53 PM 88.0 °F 98.5 °F 75.9 °F 67% 30.02 in 10.0 mi West 10.4 mph - N/A   Mostly Cloudy
6:49 PM 87.8 °F 97.6 °F 75.2 °F 66% 30.02 in 10.0 mi Variable 6.9 mph - N/A Thunderstorm Thunderstorm
6:53 PM 88.0 °F 97.5 °F 75.0 °F 65% 30.03 in 10.0 mi West 5.8 mph - N/A Thunderstorm Thunderstorm
7:53 PM 75.9 °F - 71.1 °F 85% 30.06 in 5.0 mi NE 10.4 mph 18.4 mph 0.24 in Rain , Thunderstorm Light Thunderstorms and Rain
8:45 PM 75.2 °F - 69.8 °F 83% 30.05 in 10.0 mi Calm Calm - 0.04 in   Overcast
8:53 PM 77.0 °F - 71.1 °F 82% 30.05 in 10.0 mi East 3.5 mph - 0.04 in   Overcast
9:53 PM 75.9 °F - 72.0 °F 87% 30.08 in 10.0 mi NE 4.6 mph - 0.00 in   Overcast
10:53 PM 75.9 °F - 72.0 °F 87% 30.08 in 10.0 mi Calm Calm - N/A   Mostly Cloudy
11:53 PM 77.0 °F - 72.0 °F 84% 30.08 in 10.0 mi NNE 3.5 mph - N/A   Overcast